Regional Weather Roundup
Issued by NWS

Home | Current Version | Previous Version | Graphics & Text | Print | Product List | Glossary On
Versions: 1 2 3 4 5 6 7 8 9 10 11 12 13 14 15 16 17 18 19 20 21 22 23 24 25 26 27 28 29 30 31 32 33 34 35 36 37 38 39 40 41 42 43 44 45 46 47 48 49 50
198
ASUS43 KOAX 312310
RWRNE

WEATHER ROUNDUP FOR NEBRASKA
NATIONAL WEATHER SERVICE OMAHA NE
600 PM CDT TUE MAY 31 2016

NOTES: SATELLITE DATA IS BEING USED TO AUGMENT CLOUD COVER ABOVE
       12000 FEET.
       "FAIR" INDICATES FEW OR NO CLOUDS BELOW 12,000 FEET WITH NO
       SIGNIFICANT WEATHER AND/OR OBSTRUCTIONS TO VISIBILITY.

  * THESE STATIONS DO NOT REPORT WEATHER SUCH AS RAIN...SNOW OR FOG.

NEZ001>004-019>022-054>056-010000-
NEBRASKA PANHANDLE

CITY           SKY/WX    TMP DP  RH WIND       PRES   REMARKS
SCOTTSBLUFF    PTSUNNY   69  32  25 NW14G26   30.02F
ALLIANCE       PTSUNNY   67  34  29 N20G25    30.00S
CHADRON        SUNNY     68  37  32 NW28G40   30.03R
KIMBALL        PTSUNNY   62  44  52 SE3       30.08S
SIDNEY         MOSUNNY   66  43  43 VRB3      30.06F
$$

NEZ057>060-069>072-079>082-010000-
SOUTHWEST NEBRASKA

CITY           SKY/WX    TMP DP  RH WIND       PRES   REMARKS
NORTH PLATTE   SUNNY     70  47  43 W12       29.99F
IMPERIAL       SUNNY     69  45  41 N6        30.02S
LEXINGTON      SUNNY     71  51  47 NW5       29.98S
MCCOOK         SUNNY     72  47  40 N5        30.00S
OGALLALA       SUNNY     68  44  41 W8        30.02F
$$

NEZ005>010-023>029-035>040-094-010000-
NORTH CENTRAL NEBRASKA

CITY           SKY/WX    TMP DP  RH WIND       PRES   REMARKS
VALENTINE      SUNNY     73  35  25 W23G33    29.91F
AINSWORTH      SUNNY     73  36  26 W21G29    29.92S
BROKEN BOW     MOSUNNY   71  45  39 W14       29.95F
O`NEILL        SUNNY     74  43  33 W13       29.90F
ORD            SUNNY     73  39  29 W12       29.93F
THEDFORD       PTSUNNY   71  43  36 NW16      29.96S
$$

NEZ041-046>049-061>064-073>077-083>087-010000-
SOUTH CENTRAL NEBRASKA

CITY           SKY/WX    TMP DP  RH WIND       PRES   REMARKS
GRAND ISLAND   PTSUNNY   73  45  36 N3        29.95F
AURORA         PTSUNNY   73  42  32 N6        29.95F
HASTINGS       SUNNY     72  44  36 NE6       29.96S
HEBRON         MOSUNNY   74  52  46 NE8       29.94S
HOLDREGE       SUNNY     71  45  39 NE5       29.97F
KEARNEY *      SUNNY     73  43  33 W7        29.97F
YORK           MOSUNNY   73  45  35 N6        29.95S
$$

NEZ011>018-030>034-042>045-010000-
NORTHEAST NEBRASKA

CITY           SKY/WX    TMP DP  RH WIND       PRES   REMARKS
NORFOLK        SUNNY     74  43  32 NW9       29.91S
ALBION         MOSUNNY   74  41  30 W9        29.93S
BLAIR          MOSUNNY   75  51  42 N5        29.91S
FREMONT        SUNNY     76  43  30 N5        29.91S
TEKAMAH        SUNNY     77  49  37 E7        29.89F
WAYNE          SUNNY     74  49  41 W9        29.91S
$$

NEZ050>053-065>068-078-088>093-010000-
SOUTHEAST NEBRASKA

CITY           SKY/WX    TMP DP  RH WIND       PRES   REMARKS
LINCOLN        MOSUNNY   77  51  40 CALM      29.92F
OMAHA EPPLEY   PTSUNNY   78  55  44 N8        29.89F
BEATRICE       MOSUNNY   75  56  51 N3        29.92S
FALLS CITY     MOSUNNY   77  62  59 N7        29.89S
NEBRASKA CITY  PTSUNNY   74  58  55 NW8       29.91S
PLATTSMOUTH    CLOUDY    75  58  55 N5        29.91S
$$

NEZ044-045-051>053-067-010000-
OMAHA AREA

CITY           SKY/WX    TMP DP  RH WIND       PRES   REMARKS
OMAHA EPPLEY   PTSUNNY   78  55  44 N8        29.89F
BLAIR          MOSUNNY   75  51  42 N5        29.91S
FREMONT        SUNNY     76  43  30 N5        29.91S
MILLARD        CLOUDY    76  52  43 CALM      29.90S
OFFUTT AFB     CLOUDY    76  58  52 N6        29.90S
PLATTSMOUTH    CLOUDY    75  58  55 N5        29.91S
WAHOO          FAIR      78  43  28 N6        29.91F
$$




USA.gov is the U.S. government's official web portal to all federal, state and local government web resources and services.